Find Starlink 35282

NORAD ID: 65658 Int'l Des: 2025-211 Owner: SPXS Country: US Constellation: starlink operational
LEOCIRCULARRETROGRADESSO

当前视图

正在加载3D地球...

About Starlink 35282

Starlink 35282 (NORAD 65658) is a starlink constellation satellite (v2 mini) launched Sep 19, 2025 by SPXS of US. It operates in LEO, CIRCULAR, RETROGRADE, SSO orbit with a mass of 575.00 kg.

即将过境

Passes for default location (London). Set your location on the main map for personalized predictions.

高度历史

Loading altitude history...

两行轨道根数

1 65658U 25211G 26262.35744836 .00014899 00000-0 46283-3 0 9996
2 65658 97.2850 302.5353 0000735 277.0273 83.0886 15.33451603 56349
Epoch: Sep 19, 2026 • Age: 41 hours

当前状态

高度 467.9 km
远地点 / 近地点 N/A
速度 7.63 km/s
星下点 14.09°N, 77.94°W
发射日期 Sep 19, 2025
运行时间 1 year
类型 internet

技术详情

分类 Payload
质量 575.00 kg
干质量 530.00 kg
长度 0.30 m
跨度 29.00 m
形状 ? Box + pan
制造商 SPXS
平台类型 Starlink V2MO
阶段状态 In Orbit
所有者/国家 SPXS/US

Most Searched